sat.trackr.live / text

‹ back to catalog

STARLINK-32149

NORAD 60292 · 2024-132Q

PAYLOAD ACTIVE UNKNOWN

§ Identity

Operator
Country
US
Launch date
2024-07-28
Launch site
AFETR
Launch vehicle
Mass (kg)
RCS (m²)

Purposes: comms

External: N2YO · Heavens-Above · Gunter

§ Orbital elements

Epoch: 2026-09-21T14:47:46.392288Z

Period
94.01 min
Inclination
53.1589°
Eccentricity
0.0001389
Mean motion
15.31698535 rev/d
Perigee alt
469.8 km
Apogee alt
471.7 km
Semi-major
6,848.9 km
B*
1.5595e-5
RAAN
221.2412°
Arg perigee
84.4386°
Mean anomaly
275.6774°
Rev number
12,157

§ Raw data

STARLINK-321491 60292U 24132Q   26264.61650917  .00000119  00000+0  15595-4 0  99952 60292  53.1589 221.2412 0001389  84.4386 275.6774 15.31698535121570

JSON: /api/v1/satellites/60292 · /tle

For live sub-satellite position, see the globe view (requires WebGL).

§ Visibility from observer

Set your observer location to see the next 7 days of passes ≥ 10°. The values pass through the URL so the page stays shareable.

No JS? Fill the form by hand. The geolocation button needs JavaScript.